TimeEST,TemperatureF,Dew PointF,Humidity,Sea Level PressureIn,VisibilityMPH,Wind Direction,Wind SpeedMPH,Gust SpeedMPH,PrecipitationIn,Events,Conditions,WindDirDegrees,DateUTC
12:15 AM,36.1,33.8,91,30.06,10.0,Calm,Calm,-,N/A,,Clear,0,2012-12-29 05:15:00
12:35 AM,35.8,33.6,92,30.06,10.0,Calm,Calm,-,N/A,,Clear,0,2012-12-29 05:35:00
12:55 AM,36.5,34.3,92,30.03,10.0,Calm,Calm,-,N/A,,Clear,0,2012-12-29 05:55:00
1:15 AM,36.5,34.3,92,30.02,10.0,East,4.6,-,N/A,,Scattered Clouds,80,2012-12-29 06:15:00
1:35 AM,36.5,34.7,93,30.03,10.0,Calm,Calm,-,N/A,,Mostly Cloudy,0,2012-12-29 06:35:00
1:55 AM,37.0,34.7,91,30.03,10.0,Calm,Calm,-,N/A,,Mostly Cloudy,0,2012-12-29 06:55:00
2:15 AM,37.4,35.1,91,30.02,10.0,Calm,Calm,-,N/A,,Overcast,0,2012-12-29 07:15:00
2:35 AM,37.4,34.7,90,30.02,10.0,Calm,Calm,-,N/A,,Overcast,0,2012-12-29 07:35:00
2:55 AM,37.4,34.7,90,30.03,10.0,Calm,Calm,-,N/A,,Overcast,0,2012-12-29 07:55:00
3:15 AM,37.4,34.7,90,30.02,10.0,Calm,Calm,-,N/A,,Overcast,0,2012-12-29 08:15:00
3:35 AM,37.0,35.1,93,30.00,10.0,Calm,Calm,-,N/A,,Scattered Clouds,0,2012-12-29 08:35:00
3:55 AM,37.6,36.1,95,29.98,10.0,ESE,3.5,-,N/A,,Mostly Cloudy,120,2012-12-29 08:55:00
4:15 AM,38.3,35.6,90,29.99,10.0,SSE,3.5,-,N/A,,Overcast,150,2012-12-29 09:15:00
4:35 AM,38.5,35.8,90,29.97,7.0,Calm,Calm,-,N/A,,Overcast,0,2012-12-29 09:35:00
4:55 AM,37.6,36.5,96,29.95,7.0,NE,4.6,-,N/A,,Overcast,40,2012-12-29 09:55:00
5:15 AM,37.8,37.0,97,29.92,5.0,ENE,5.8,-,0.02,,Overcast,70,2012-12-29 10:15:00
5:35 AM,37.8,37.4,99,29.92,7.0,Calm,Calm,-,0.03,,Overcast,0,2012-12-29 10:35:00
5:55 AM,37.8,37.4,99,29.88,7.0,East,3.5,-,0.06,,Overcast,90,2012-12-29 10:55:00
6:15 AM,38.1,38.1,100,29.86,7.0,ESE,6.9,-,0.01,,Overcast,110,2012-12-29 11:15:00
6:35 AM,38.5,38.5,100,29.83,7.0,East,8.1,-,0.02,,Overcast,100,2012-12-29 11:35:00
6:55 AM,38.7,38.7,100,29.82,10.0,East,8.1,-,0.02,,Overcast,100,2012-12-29 11:55:00
7:15 AM,39.2,39.2,100,29.81,10.0,East,8.1,-,N/A,,Overcast,90,2012-12-29 12:15:00
7:35 AM,39.6,39.6,100,29.81,10.0,East,4.6,-,N/A,,Overcast,80,2012-12-29 12:35:00
7:55 AM,39.6,39.6,100,29.79,7.0,ENE,3.5,-,N/A,,Overcast,60,2012-12-29 12:55:00
8:15 AM,40.1,40.1,100,29.78,10.0,East,4.6,-,N/A,,Overcast,90,2012-12-29 13:15:00
8:35 AM,40.3,40.3,100,29.76,7.0,East,5.8,-,N/A,,Overcast,90,2012-12-29 13:35:00
8:55 AM,40.3,40.3,100,29.75,5.0,East,5.8,-,N/A,,Overcast,100,2012-12-29 13:55:00
9:15 AM,40.5,40.5,100,29.76,2.0,Calm,Calm,-,0.01,,Overcast,0,2012-12-29 14:15:00
9:35 AM,41.0,41.0,100,29.75,2.5,Calm,Calm,-,0.02,,Overcast,0,2012-12-29 14:35:00
9:55 AM,41.0,41.0,100,29.75,3.0,Calm,Calm,-,0.02,,Overcast,0,2012-12-29 14:55:00
10:15 AM,41.2,41.2,100,29.75,1.5,NW,4.6,-,0.02,,Overcast,310,2012-12-29 15:15:00
10:35 AM,41.2,41.2,100,29.75,1.2,NW,4.6,-,0.07,,Overcast,320,2012-12-29 15:35:00
10:55 AM,41.2,41.2,100,29.72,1.8,NW,4.6,-,0.10,,Overcast,320,2012-12-29 15:55:00
11:15 AM,41.4,41.4,100,29.71,2.0,WNW,4.6,-,0.01,,Overcast,300,2012-12-29 16:15:00
11:35 AM,41.5,41.5,100,29.69,3.0,NW,6.9,-,0.01,,Overcast,320,2012-12-29 16:35:00
11:55 AM,41.2,41.2,100,29.68,2.5,NW,5.8,-,0.01,,Overcast,320,2012-12-29 16:55:00
12:15 PM,41.0,41.0,100,29.66,4.0,NW,6.9,-,N/A,,Overcast,310,2012-12-29 17:15:00
12:35 PM,41.2,41.2,100,29.64,7.0,NW,4.6,-,N/A,,Overcast,320,2012-12-29 17:35:00
12:55 PM,41.0,41.0,100,29.63,10.0,NNW,6.9,-,N/A,,Overcast,330,2012-12-29 17:55:00
1:15 PM,41.5,41.5,100,29.62,10.0,WNW,4.6,-,N/A,,Overcast,300,2012-12-29 18:15:00
1:35 PM,41.5,41.5,100,29.60,10.0,WNW,3.5,-,N/A,,Overcast,290,2012-12-29 18:35:00
1:55 PM,41.7,41.7,100,29.60,10.0,WNW,4.6,-,N/A,,Overcast,290,2012-12-29 18:55:00
2:15 PM,41.9,41.9,100,29.60,10.0,West,9.2,-,N/A,,Overcast,270,2012-12-29 19:15:00
2:35 PM,41.5,41.5,100,29.60,10.0,West,10.4,17.3,N/A,,Overcast,270,2012-12-29 19:35:00
2:55 PM,41.5,41.4,99,29.60,10.0,West,9.2,-,N/A,,Overcast,270,2012-12-29 19:55:00
3:15 PM,42.1,41.5,98,29.60,10.0,West,8.1,-,N/A,,Overcast,280,2012-12-29 20:15:00
3:35 PM,42.1,41.4,97,29.60,10.0,West,8.1,-,N/A,,Overcast,280,2012-12-29 20:35:00
3:55 PM,42.1,41.0,96,29.60,10.0,West,10.4,16.1,N/A,,Scattered Clouds,270,2012-12-29 20:55:00
4:15 PM,42.8,41.0,93,29.61,10.0,West,8.1,-,N/A,,Clear,270,2012-12-29 21:15:00
4:35 PM,42.4,40.1,91,29.61,10.0,West,9.2,-,N/A,,Clear,260,2012-12-29 21:35:00
4:55 PM,41.9,39.9,93,29.62,10.0,West,8.1,-,N/A,,Clear,260,2012-12-29 21:55:00
5:15 PM,41.5,39.6,93,29.62,10.0,West,9.2,-,N/A,,Clear,270,2012-12-29 22:15:00
5:35 PM,41.5,39.6,93,29.63,10.0,West,6.9,-,N/A,,Clear,270,2012-12-29 22:35:00
6:15 PM,40.1,39.2,97,29.65,10.0,SW,3.5,-,N/A,,Clear,230,2012-12-29 23:15:00
6:35 PM,39.6,38.8,97,29.67,10.0,WSW,3.5,-,N/A,,Clear,240,2012-12-29 23:35:00
6:55 PM,38.8,38.5,99,29.67,10.0,Calm,Calm,-,N/A,,Clear,0,2012-12-29 23:55:00
7:15 PM,37.4,36.7,97,29.68,10.0,Calm,Calm,-,N/A,,Clear,0,2012-12-30 00:15:00
7:35 PM,35.6,35.6,100,29.69,5.0,Calm,Calm,-,0.01,,Clear,0,2012-12-30 00:35:00
7:55 PM,33.3,33.3,100,29.71,7.0,Calm,Calm,-,0.01,,Scattered Clouds,0,2012-12-30 00:55:00
8:15 PM,37.6,37.6,100,29.71,10.0,West,6.9,-,N/A,,Mostly Cloudy,280,2012-12-30 01:15:00
8:35 PM,40.3,40.1,99,29.72,10.0,WNW,5.8,-,N/A,,Overcast,300,2012-12-30 01:35:00
8:55 PM,42.3,38.1,85,29.74,10.0,WNW,10.4,-,N/A,,Overcast,300,2012-12-30 01:55:00
9:15 PM,43.0,36.1,77,29.75,10.0,WNW,5.8,-,N/A,,Overcast,300,2012-12-30 02:15:00
9:55 PM,41.4,35.1,78,29.78,10.0,WNW,3.5,-,N/A,,Scattered Clouds,300,2012-12-30 02:55:00
10:15 PM,40.6,34.9,80,29.79,10.0,WNW,5.8,-,N/A,,Scattered Clouds,300,2012-12-30 03:15:00
10:35 PM,40.3,34.7,80,29.81,10.0,WNW,3.5,-,N/A,,Clear,300,2012-12-30 03:35:00
10:55 PM,39.7,34.0,80,29.82,10.0,NW,3.5,-,N/A,,Clear,310,2012-12-30 03:55:00
11:15 PM,37.9,33.4,84,29.83,10.0,Calm,Calm,-,N/A,,Mostly Cloudy,0,2012-12-30 04:15:00
11:35 PM,37.0,34.2,89,29.84,10.0,WNW,4.6,-,N/A,,Mostly Cloudy,290,2012-12-30 04:35:00
11:55 PM,40.1,32.2,73,29.84,10.0,WNW,6.9,-,N/A,,Scattered Clouds,300,2012-12-30 04:55:00